Tracking 29892 objects as of 21-Nov-2024
HD Live streaming from Space Station
objects crossing your sky now

FREGAT R/B

Track FREGAT R/B now!


NORAD ID: 45609
Int'l Code: 2020-031B
Perigee: 1,984.3 km
Apogee: 38,241.9 km
Inclination: 63.6 °
Period: 714.9 minutes
Semi major axis: 26484 km
RCS: Unknown
Launch date: May 22, 2020
Source: Commonwealth of Independent States (former USSR) (CIS)
Launch site: PLESETSK MISSILE AND SPACE COMPLEX (PKMTR)

Note: This is a ROCKET BODY
Your satellite tracking list
Your tracking list is empty




NASA's NSSDC Master Catalog

Two Line Element Set (TLE):
1 45609U 20031B   24323.14737692  .00001367  00000-0  00000-0 0  9990
2 45609  63.6288 133.4184 6845164 259.1869  23.0667  2.01430401 33057
Source of the keplerian elements: AFSPC